User: anonymous   Login
Location: Forst
(46.9333°N, 15.4333°E)
Time: 05:42:53
(UTC+00:00)
Language:

CZ-2D R/B - Orbit

View from above orbital plane
View from above orbital plane
View from above satellite
View from above satellite

Ground track
Ground track

The orbit data is extracted from the following two-line orbital elements,

1 28738U 05024B   21055.76591168  .00000659  00000-0  41650-4 0  9995
2 28738  97.3683  75.7530 0012777  38.1541 322.0592 15.12280566859538
Epoch (UTC): 24 February 2021 18:22:54
Eccentricity: 0.0012777
inclination: 97.3683°
perigee height: 520 km
apogee height: 538 km
right ascension of ascending node: 75.7530°
argument of perigee: 38.1541°
revolutions per day: 15.12280566
mean anomaly at epoch: 322.0592°
orbit number at epoch: 85953

The dashed part of the orbit path shows where the satellite is in the earth's shadow,  

DLR